STARLINK-3766, 52296

Orbit data source: Space-Track

STARLINK-3766, 52296 is a payload satellite owned by SpaceX/Seattle (US) in LEO that was launched on Thu, 21 Apr 2022 UTC via an FALCON 9 launch vehicle from the Air Force Eastern Test Range (AFETR). Payload-class satellites include a variety of spacecraft equipped with specific instruments for various scientific and technological missions. These include communications satellites like Starlink; space stations such as the ISS; scientific satellites like the Hubble; Earth observation satellites from companies like Planet Labs, Umbra, and HawkEye 360; GPS; miniature CubeSats for education and research; and military/defense satellites.

Loading next visibility...
Identifier
52296, 2022-041AM
Orbit
LEO
Country
Flag of USUS
Related business
Manufacturer
SpaceX/Seattle
Mission
Operational Commercial Communications
Bus & Motor
STARLINK, Unknown motor
Mass
297 kg wet, ~275 kg dry
Launch date (UTC)
2022-04-21 (4 years ago)
Launch vehicle
FALCON 9
Launch site
Air Force Eastern Test Range (AFETR)
Object type
Payload
Rocket body
Debris
Shape & HBR
Box + 1 Pan, 10.1 m
Radar Cross Section
11.087 m², Large (>1 m²)

Expand to show TLE details & history
Last TLE update: 17 hours ago

TLE from 17 hours ago
0 STARLINK-3766
1 52296U 22041AM  26206.36346188  .00003785  00000-0  12310-3 0  9991
2 52296  53.1608 198.4627 0001274  64.6016 295.5119 15.34397426235324
Epoch: 2026-07-25T08:43Z
TLE epoch observation values (Epoch: 2026-07-25T08:43:23.106Z)
Latitude
0.00003°
Longitude
124.53963°
Altitude
463.237 km
Speed
7.636 km/s
True Right ascension
13h 13m 51s
True Declination
0° 00' 00"
Sunlit
Object was in daylight at epoch
Visualization orbit readout
Latitude
Unknown
Longitude
Unknown
Altitude
Unknown
Speed
Unknown
Apparent Right ascension
Unknown
Apparent Declination
Unknown
Sunlit
N/A
Visualization observer readout
Local Sidereal Time
14:33:03
Azimuth
Unknown
Elevation
Unknown
Doppler factor
Unknown
Orbital elements
Apogee altitude
463.839 km
Perigee altitude
462.096 km
Semi-major axis
6,841.105 km
Eccentricity
0.00013
Inclination
53.1608°
RAAN
198.4627°
Arg. of periapsis
64.6016°
True anomaly
295.49872°
Mean anomaly
295.5119°
Eccentric anomaly
295.50531°
Mean motion
3.83578 °/min
Orbital period
93.85 mins
BSTAR
0.0001231
Loading maneuver chart data...
Computing Atmospheric mass density...
Loading historical data...
Loading historical data...
Loading historical data...
Loading historical data...
Loading historical data...
Loading historical data...
Loading historical data...

Documentation

Showing up to 5 results
|